Simultaneous Nadir Overpasses (SNOs) Predictions

Prediction of SNOs between GOES-16 and TERRA Satellite Orbit:

Table of predicted SNOs for the next 14.0 days since TLE Epoch: 8/29/2020
Index Date Time (GOES-16) GOES-16 Lat,Lon TERRA Lat,Lon Distance(km) Time Diff (sec)
1 08/30/2020 15:23:56 0.02, -75.19 -0.26, -73.76 162.39 80
2 08/31/2020 03:47:59 -0.03, -75.18 -0.86, -78.95 428.86 80
3 09/01/2020 15:11:45 0.02, -75.19 -0.91, -70.81 498.77 80
4 09/02/2020 03:35:48 -0.02, -75.19 -0.20, -75.99 92.23 80
5 09/04/2020 03:20:58 -0.02, -75.20 0.45, -73.04 245.20 80
6 09/04/2020 15:44:52 0.03, -75.21 0.68, -78.19 339.59 80
7 09/06/2020 15:30:01 0.02, -75.23 0.02, -75.24 1.68 80
8 09/08/2020 15:17:49 0.02, -75.25 -0.58, -72.28 337.26 80
9 09/09/2020 03:41:53 -0.03, -75.25 -0.53, -77.47 253.12 80
10 09/11/2020 03:27:02 -0.03, -75.27 0.13, -74.52 85.80 80
11 09/11/2020 15:50:57 0.04, -75.29 0.99, -79.67 498.83 80
